Location: Dötzum
(52.0808°N, 9.8063°E)
Time: 05:26:08
(UTC+00:00)

Meteor 2-5 Rocket - Pass Details

Date: 27 May 2022
Orbit: 832 x 912 km, 81.2° (Epoch: 24 June)

Event Time Altitude Azimuth Distance (km) Brightness Sun altitude
Exits shadow 00:50:15 18° 183° (S) 2,010 5.1 -13.9°
Maximum altitude 00:54:37 76° 100° (E) 896 3.8 -13.7°
Drops below altitude 10° 01:00:16 10° 16° (NNE) 2,495 7.6 -13.3°
Sets 01:02:40 0° 15° (NNE) 3,425 8.7 -13.2°
